Leadville, CO

1:27 PM MDT on July 27, 2017 (GMT -0600)
Lake County

Weather History for KLXV - October, 2012

Change the Weather History Date:

Monday, October 22, 2012

  Actual Average Record
Temperature  
Mean Temperature 39 °F -  
Max Temperature 55 °F 47 °F 66 °F (2003)
Min Temperature 23 °F 22 °F 7 °F (2007)
Degree Days  
Heating Degree Days 26 31  
Month to date heating degree days 553 598  
Since 1 July heating degree days 1659 1896  
Cooling Degree Days 0 0  
Month to date cooling degree days 0 0  
Year to date cooling degree days 0 0  
Moisture  
Dew Point 16 °F    
Average Humidity 45    
Maximum Humidity 75    
Minimum Humidity 15    
Precipitation  
Precipitation 0.00 in 0.03 in 0.33 in (2015)
Month to date precipitation 0.59 0.64  
Year to date precipitation 9.98 10.67  
Sea Level Pressure  
Sea Level Pressure 29.73 in    
Wind  
Wind Speed 9 mph (SE)    
Max Wind Speed 22 mph    
Max Gust Speed 31 mph    
Visibility 10 miles    
Events      
T = Trace of Precipitation, MM = Missing Value Source: NWS Daily Summary

Daily Weather History Graph

Daily Weather History Graph

Search for Another Location

Airport or City:

Trip Planner

Search our weather history database for the weather conditions in past years. The results will help you decide how hot, cold, wet, or windy it might be!

Date:

Astronomy

Oct. 22, 2012 Rise Set
Actual Time 7:22 AM MDT 6:15 PM MDT
Civil Twilight 6:55 AM MDT 6:43 PM MDT
Nautical Twilight 6:24 AM MDT 7:14 PM MDT
Astronomical Twilight 5:53 AM MDT 7:45 PM MDT
Moon 2:23 PM MDT (10/22) 12:15 AM MDT (10/22)
Length of Visible Light 11h 47m
Length of Day
10h 53m
First Quarter, 57% of the Moon is Illuminated
Oct 22
First Quarter
Oct 29
Full
Nov 6
Last Quarter
Nov 13
New
Nov 20
First Quarter

Hourly Weather History & Observations

Time (MDT) Temp. Windchill Dew Point Humidity Pressure Visibility Wind Dir Wind Speed Gust Speed Precip Events Conditions
12:53 AM 32.0 °F 28.7 °F 19.0 °F 59% 29.77 in 10.0 mi ENE 3.5 mph - N/A   Clear
1:53 AM 30.9 °F 26.2 °F 19.9 °F 64% 29.76 in 10.0 mi SE 4.6 mph - N/A   Clear
2:53 AM 30.9 °F 27.5 °F 21.0 °F 67% 29.75 in 10.0 mi ENE 3.5 mph - N/A   Clear
3:53 AM 28.0 °F 22.8 °F 19.9 °F 72% 29.75 in 10.0 mi East 4.6 mph - N/A   Clear
4:53 AM 27.0 °F 21.6 °F 19.0 °F 72% 29.76 in 10.0 mi East 4.6 mph - N/A   Clear
5:53 AM 26.1 °F 20.5 °F 19.0 °F 75% 29.79 in 10.0 mi ENE 4.6 mph - N/A   Clear
6:53 AM 26.1 °F 17.6 °F 19.0 °F 75% 29.86 in 10.0 mi East 8.1 mph - N/A   Clear
7:53 AM 28.9 °F 25.2 °F 19.9 °F 69% 29.87 in 10.0 mi East 3.5 mph - N/A   Clear
8:53 AM 35.1 °F - 21.0 °F 57% 29.83 in 10.0 mi Calm Calm - N/A   Clear
9:53 AM 41.0 °F - 23.0 °F 49% 29.78 in 10.0 mi Calm Calm - N/A   Clear
10:53 AM 46.0 °F 41.0 °F 19.9 °F 35% 29.73 in 10.0 mi South 10.4 mph 19.6 mph N/A   Clear
11:53 AM 50.0 °F - 17.1 °F 27% 29.73 in 10.0 mi South 15.0 mph 21.9 mph N/A   Clear
12:53 PM 51.1 °F - 16.0 °F 25% 29.68 in 10.0 mi SSE 15.0 mph 28.8 mph N/A   Clear
1:53 PM 53.1 °F - 14.0 °F 21% 29.68 in 10.0 mi West 12.7 mph - N/A   Partly Cloudy
2:53 PM 54.0 °F - 12.9 °F 20% 29.64 in 10.0 mi SW 10.4 mph 20.7 mph N/A   Partly Cloudy
3:53 PM 54.0 °F - 9.0 °F 17% 29.67 in 10.0 mi West 15.0 mph 24.2 mph N/A   Clear
4:53 PM 53.1 °F - 10.0 °F 18% 29.68 in 10.0 mi WSW 17.3 mph 24.2 mph N/A   Clear
5:53 PM 48.9 °F - 3.9 °F 16% 29.73 in 10.0 mi WSW 11.5 mph 20.7 mph N/A   Clear
6:53 PM 46.0 °F 43.9 °F 8.1 °F 21% 29.75 in 10.0 mi WSW 4.6 mph - N/A   Clear
7:53 PM 42.1 °F 38.4 °F 10.0 °F 27% 29.76 in 10.0 mi East 5.8 mph - N/A   Clear
8:53 PM 44.1 °F 40.8 °F 15.1 °F 31% 29.71 in 10.0 mi Variable 5.8 mph 16.1 mph N/A   Clear
9:53 PM 41.0 °F 33.5 °F 15.1 °F 35% 29.69 in 10.0 mi SE 13.8 mph 19.6 mph N/A   Clear
10:53 PM 43.0 °F 36.0 °F 14.0 °F 31% 29.63 in 10.0 mi SE 13.8 mph 26.5 mph N/A   Clear
11:53 PM 42.1 °F 36.6 °F 16.0 °F 35% 29.62 in 10.0 mi SE 9.2 mph 18.4 mph N/A   Clear